CW5102 Weather Reports


Display with metric or nautical units.
time (UTC)temp
F
wind
direction
speed
MPH
gust
MPH
rain 1hr
in
rain 24hr
in
rain mn
in
humidity
%
barometer
mb
20200703194837 89 305 0.0 0.0 0.00 0.00 0.00 47 1017.0
20200703193352 88 157 0.0 0.0 0.00 0.00 0.00 49 1016.9
20200703191830 88 278 0.0 0.0 0.00 0.00 0.00 52 1016.9
20200703190342 87 167 0.0 0.0 0.00 0.00 0.00 50 1017.1
20200703184839 87 157 0.0 0.0 0.00 0.00 0.00 52 1017.1
20200703183348 87 151 0.0 0.0 0.00 0.00 0.00 49 1017.2
20200703181829 86 149 0.0 0.0 0.00 0.00 0.00 47 1017.2
20200703180356 86 149 0.0 0.0 0.00 0.00 0.00 50 1017.5
20200703174836 85 149 0.0 0.0 0.00 0.00 0.00 50 1017.5
20200703173345 86 149 0.0 0.0 0.00 0.00 0.00 52 1017.4
20200703171844 85 94 0.0 0.0 0.00 0.00 0.00 54 1017.6
20200703170354 85 283 0.0 0.0 0.00 0.00 0.00 50 1017.7
20200703164838 84 163 0.0 0.0 0.00 0.00 0.00 57 1017.7
20200703163350 84 174 0.0 0.0 0.00 0.00 0.00 59 1017.6
20200703161846 84 174 0.0 0.0 0.00 0.00 0.00 60 1017.5
20200703160356 83 201 0.0 0.0 0.00 0.00 0.00 62 1017.6
20200703154836 83 221 0.0 0.0 0.00 0.00 0.00 64 1017.7
20200703153347 82 235 0.0 0.0 0.00 0.00 0.00 62 1017.7
20200703151845 82 235 0.0 0.0 0.00 0.00 0.00 63 1017.7
20200703150356 82 242 0.0 0.0 0.00 0.00 0.00 64 1017.9
20200703144833 82 242 0.0 0.0 0.00 0.00 0.00 70 1017.8
20200703143346 82 244 0.0 0.0 0.00 0.00 0.00 71 1017.7
20200703141847 82 244 0.0 0.0 0.00 0.00 0.00 70 1017.8
20200703140338 82 244 0.0 0.0 0.00 0.00 0.00 73 1017.8
20200703134839 81 244 0.0 0.0 0.00 0.00 0.00 80 1017.9
20200703133350 80 244 0.0 0.0 0.00 0.00 0.00 85 1017.7
20200703131830 77 244 0.0 0.0 0.00 0.00 0.00 94 1017.7
20200703130339 74 244 0.0 0.0 0.00 0.00 0.00 94 1017.9
20200703124842 72 139 0.0 0.0 0.00 0.00 0.00 94 1017.9
20200703123353 72 139 0.0 0.0 0.00 0.00 0.00 94 1017.7
20200703121831 71 139 0.0 0.0 0.00 0.00 0.00 94 1017.9
20200703120347 71 139 0.0 0.0 0.00 0.00 0.00 94 1017.6
20200703114843 70 139 0.0 0.0 0.00 0.00 0.00 94 1017.5
20200703113357 70 139 0.0 0.0 0.00 0.00 0.00 94 1017.5
20200703111832 70 139 0.0 0.0 0.00 0.00 0.00 94 1017.5
20200703110343 70 139 0.0 0.0 0.00 0.00 0.00 94 1017.3
20200703104827 70 139 0.0 0.0 0.00 0.00 0.00 94 1017.1
20200703103336 70 139 0.0 0.0 0.00 0.00 0.00 94 1016.8
20200703101841 70 139 0.0 0.0 0.00 0.00 0.00 94 1016.9
20200703100352 70 139 0.0 0.0 0.00 0.00 0.00 94 1016.8
20200703094834 70 139 0.0 0.0 0.00 0.00 0.00 94 1016.9
20200703093342 70 139 0.0 0.0 0.00 0.00 0.00 94 1017.2
20200703091840 70 139 0.0 0.0 0.00 0.00 0.00 94 1016.9
20200703090351 71 139 0.0 0.0 0.00 0.00 0.00 93 1016.6
20200703084830 71 139 0.0 0.0 0.00 0.00 0.00 92 1016.7
20200703083346 71 139 0.0 0.0 0.00 0.00 0.00 91 1016.6
20200703081842 72 139 0.0 0.0 0.00 0.00 0.00 89 1016.8
20200703080345 72 139 0.0 0.0 0.00 0.00 0.00 88 1016.8
20200703074836 72 139 0.0 0.0 0.00 0.00 0.00 88 1016.7
20200703073345 73 139 0.0 0.0 0.00 0.00 0.00 89 1016.8
20200703071830 73 139 0.0 0.0 0.00 0.00 0.00 88 1016.9
20200703070336 73 139 0.0 0.0 0.00 0.00 0.00 85 1016.9
20200703064837 74 139 0.0 0.0 0.00 0.00 0.00 85 1017.0
20200703063350 74 139 0.0 0.0 0.00 0.00 0.00 82 1016.8
20200703061846 74 139 0.0 0.0 0.00 0.00 0.00 82 1016.8
20200703060339 75 139 0.0 0.0 0.00 0.00 0.00 82 1016.8
20200703054840 75 139 0.0 0.0 0.00 0.00 0.00 81 1016.9
20200703053349 75 139 0.0 0.0 0.00 0.00 0.00 81 1017.0
20200703051853 75 139 0.0 0.0 0.00 0.00 0.00 80 1016.9
20200703050333 76 139 0.0 0.0 0.00 0.00 0.00 78 1016.8
20200703044836 76 139 0.0 0.0 0.00 0.00 0.00 77 1017.0
20200703043344 76 139 0.0 0.0 0.00 0.00 0.00 75 1016.9
20200703041845 76 139 0.0 0.0 0.00 0.00 0.00 75 1017.0
20200703040339 77 139 0.0 0.0 0.00 0.00 0.00 75 1016.7
20200703034839 77 139 0.0 0.0 0.00 0.00 0.00 74 1016.4
20200703033351 77 139 0.0 0.0 0.00 0.00 0.00 72 1016.4
20200703031831 78 139 0.0 0.0 0.00 0.00 0.00 70 1016.0
20200703030340 78 139 0.0 0.0 0.00 0.00 0.00 67 1015.6
20200703024842 79 139 0.0 0.0 0.00 0.00 0.00 65 1015.3
20200703023351 80 139 0.0 0.0 0.00 0.00 0.00 62 1015.0
20200703021833 80 139 0.0 0.0 0.00 0.00 0.00 60 1014.8
20200703020342 81 139 0.0 0.0 0.00 0.00 0.00 58 1014.7
20200703014842 82 139 0.0 0.0 0.00 0.00 0.00 56 1014.9
20200703013337 82 139 0.0 0.0 0.00 0.00 0.00 56 1015.0
20200703011836 83 139 0.0 0.0 0.00 0.00 0.00 55 1015.1
20200703010348 84 139 0.0 0.0 0.00 0.00 0.00 54 1015.3
20200703004828 85 139 0.0 0.0 0.00 0.00 0.00 53 1015.5
20200703003339 86 139 0.0 0.0 0.00 0.00 0.00 52 1015.6
20200703001838 87 139 0.0 1.0 0.00 0.00 0.00 51 1015.5
20200703000347 88 139 0.0 1.0 0.00 0.00 0.00 49 1015.6
20200702234828 90 133 0.0 1.0 0.00 0.00 0.00 48 1015.8
20200702233338 90 119 0.0 5.0 0.00 0.00 0.00 48 1015.8
20200702231837 90 95 0.0 2.0 0.00 0.00 0.00 50 1015.6
20200702230348 90 125 0.0 4.0 0.00 0.00 0.00 47 1015.8
20200702224846 90 120 0.0 1.0 0.00 0.00 0.00 51 1015.9
20200702223340 89 120 0.0 2.0 0.00 0.00 0.00 54 1015.9
20200702221839 90 149 0.0 3.0 0.00 0.00 0.00 54 1016.0
20200702220351 91 160 0.0 2.0 0.00 0.00 0.00 52 1015.9
20200702214831 90 279 0.0 1.0 0.00 0.00 0.00 52 1016.1
20200702204834 90 327 0.0 0.0 0.00 0.00 0.00 46 1016.2
20200702203354 90 131 0.0 0.0 0.00 0.00 0.00 51 1016.3